Terminal Aerodrome Forecast
Issued by NWS Columbia, SC

Home | Current Version | Previous Version | Text Only | Print | Product List | Glossary On
Versions: 1 2 3 4 5 6 7 8 9 10 11 12 13 14 15 16 17 18 19 20 21 22 23 24 25 26 27 28 29 30 31 32 33 34 35 36 37 38 39 40 41 42 43 44 45 46 47 48 49 50
000
FTUS42 KCAE 270234 AAC
TAFAGS
TAF AMD
KAGS 270234Z 2703/2724 07007KT P6SM BKN025 BKN100
     FM270600 06005KT P6SM BKN015 OVC080
     FM270900 05005KT 6SM -SHRA OVC007
     FM271400 04010KT 5SM SHRA SCT008 OVC015
     FM271800 VRB05KT P6SM VCSH BKN025=

USA.gov is the U.S. government's official web portal to all federal, state and local government web resources and services.